[[{"header":{"parameterUnit":"m.s-1","parameterCategory":1,"la1":30.2991,"la2":30.254,"lo1":-89.0895,"lo2":-89.0444,"dy":0.0017,"dx":0.0017,"nx":28,"ny":28,"refTime":"2024-04-12T03:00:00:Z","depth":0,"parameterNumber":2,"parameterNumberName":"U-component_of_WINDS"},"data":[0,0,0,0,0,0,0,0,0,0,0,0,0,0,0,0,0,0,0,0,0,0,0,0,0,0,0,0,0,0,0,0,0,0,0,0,0,0,0,0,0,0,0,0,0,0,0,0,0,0,0,0,0,0,0,0,0,0,2.8096,2.8097,0,2.8164,2.8165,2.8166,2.8123,2.8121,2.8119,2.8117,2.8187,2.8191,2.8194,0,0,0,0,0,0,0,0,0,0,0,0,0,2.793,2.7933,2.8096,2.8097,2.8098,2.8164,2.8165,2.8166,2.8123,2.8121,2.8118,2.8116,2.8186,2.819,2.8195,0,0,0,0,0,0,0,0,0,0,0,0,0,2.8,2.7934,2.8096,2.8084,2.8084,2.8164,2.8165,2.8166,2.8124,2.8121,2.8118,2.8115,2.8184,2.819,2.8195,2.8291,0,0,2.8213,2.8215,0,0,0,0,0,0,0,0,2.7996,2.8006,2.8085,2.8085,2.8085,2.8132,2.8132,2.8208,2.8125,2.8109,2.8117,2.8113,2.8171,2.8178,2.8197,2.8294,2.8297,2.8213,2.8216,2.8219,2.822,0,0,0,0,0,0,0,2.7991,2.8003,2.8123,2.8086,2.8086,2.8076,2.8083,2.8146,2.8156,2.811,2.8107,2.8116,2.8171,2.8192,2.8199,2.8298,2.8213,2.8218,2.8221,2.8224,2.8477,2.848,0,0,0,0,0,0,2.7987,2.7999,2.8121,2.8125,2.8032,2.8082,2.8089,2.812,2.8155,2.8158,2.8118,2.8113,2.8184,2.8192,2.8201,2.8315,2.8219,2.8224,2.8227,2.8474,2.8478,2.8481,0,0,0,0,0,0,2.7984,2.7999,2.8118,2.8062,2.8076,2.8088,2.8123,2.8123,2.8144,2.8161,2.8163,2.8138,2.8182,2.8193,2.8269,2.8317,2.8227,2.8232,2.847,2.8475,2.848,2.8544,0,0,0,0,0,0,2.7979,2.7998,2.8034,2.8063,2.8079,2.8185,2.8126,2.8126,2.8154,2.8148,2.8181,2.8183,2.818,2.8261,2.8274,2.8323,2.8236,2.8465,2.8472,2.8478,2.8537,2.855,2.8561,0,0,0,0,0,2.7974,2.8049,2.8036,2.8051,2.8124,2.8188,2.8197,2.8192,2.8158,2.8194,2.8206,2.8182,2.8309,2.8269,2.8284,2.8335,2.8462,2.847,2.8477,2.8532,2.8548,2.8561,0,0,0,0,0,0,2.8025,2.8052,2.8038,2.8125,2.8154,2.818,2.8226,2.8209,2.8249,2.8242,2.8234,2.8242,2.8321,2.8336,2.829,2.8429,2.8381,2.8391,2.8417,2.8432,2.8444,2.8439,2.8241,0,0,0,0,0,2.8047,2.8096,2.8117,2.8192,2.8207,2.8214,2.8242,2.8235,2.8266,2.8278,2.8294,2.8325,2.8372,2.8403,2.8447,2.8539,2.8546,2.8582,2.8594,2.8604,2.8613,2.8664,2.868,2.8506,2.8506,2.8506,0,0,2.8091,2.8112,2.8144,2.8202,2.8224,2.8276,2.8225,2.8281,2.8319,2.8286,2.8359,2.8373,2.8406,2.8491,2.8529,2.8505,2.8663,2.8614,2.8621,2.8625,2.8673,2.869,2.8705,2.8511,2.851,2.851,0,0,2.8199,2.822,2.8285,2.8308,2.8342,2.8346,2.8362,2.8391,2.8399,2.8472,2.8448,2.8494,2.8575,2.8599,2.8623,2.8741,2.8721,2.8756,2.8819,2.8868,2.8882,2.8894,2.8936,2.8952,2.8765,2.8766,2.8766,0,2.825,2.8326,2.832,2.8378,2.8405,2.8378,2.8444,2.8467,2.8514,2.8533,2.8506,2.8607,2.8628,2.8718,2.8747,2.8767,2.8785,2.8752,2.888,2.8893,2.8904,2.8944,2.896,2.877,2.8769,2.8769,2.8768,0,2.8388,2.8441,2.8489,2.8536,2.8568,2.8629,2.8633,2.8666,2.8658,2.8665,2.874,2.8764,2.8813,2.8834,2.8826,2.8924,2.8908,2.8881,2.8832,2.8924,2.8962,2.8978,2.8775,2.8774,2.8773,2.8772,0,0,2.8529,2.8572,2.859,2.861,2.8647,2.8688,2.8749,2.8796,2.8825,2.8859,2.891,2.898,2.8955,2.8981,2.8976,2.902,2.9113,2.8987,2.8988,2.901,2.9222,2.9242,2.926,2.91,2.9103,2.9105,2.9219,0,2.8639,2.8745,2.8742,2.884,2.889,2.8866,2.8919,2.8947,2.8956,2.8999,2.9009,2.9059,2.9022,2.9038,2.908,2.9092,2.9155,2.9084,2.9147,2.9149,2.9139,2.928,2.9301,2.9408,2.9234,2.9237,2.9239,0,2.8781,2.882,2.8924,2.8953,2.8974,2.9021,2.9065,2.9107,2.9139,2.9143,2.9173,2.9161,2.9223,2.9173,2.9259,2.9211,2.9236,2.9247,2.9251,2.9256,2.9199,2.9289,2.9442,2.9458,2.9262,2.926,2.9258,0,2.8874,2.8952,2.9024,2.9043,2.9079,2.9113,2.913,2.9159,2.9188,2.9227,2.9246,2.9291,2.9316,2.9352,2.9353,2.9316,2.944,2.9389,2.9445,2.9445,2.9471,2.9469,2.963,2.9489,2.9488,2.9488,2.9488,0,2.8996,2.9061,2.9066,2.9111,2.9182,2.9178,2.925,2.9263,2.9289,2.9336,2.9318,2.9363,2.9362,2.9407,2.9408,2.948,2.9491,2.9496,2.9495,2.9497,2.9497,2.9514,2.9506,2.9492,2.9491,2.949,2.949,0,2.9112,2.9118,2.9195,2.9223,2.9232,2.9284,2.9308,2.9351,2.9359,2.9418,2.9432,2.9445,2.9497,2.9502,2.9563,2.9564,2.965,2.9642,2.9639,2.9638,2.9693,2.9687,2.987,2.9893,2.9737,2.9738,2.9739,0,2.9189,2.9238,2.9272,2.9303,2.9321,2.937,2.94,2.9399,2.943,2.9471,2.9509,2.956,2.96,2.9686,2.9701,2.9747,2.974,2.9801,2.9747,2.9747,2.9741,2.9738,2.9743,2.9811,2.9813,2.9814,2.9815,0,2.9327,2.9328,2.9371,2.9417,2.9453,2.9488,2.9521,2.9547,2.955,2.9587,2.964,2.9672,2.9735,2.9786,2.9832,2.9849,2.9833,2.9832,2.9847,2.985,2.9846,2.9849,2.9668,2.9828,2.9827,2.9826,2.9825,2.9824,2.9426,2.9468,2.9499,2.9548,2.9573,2.9605,2.9647,2.966,2.9705,2.9755,2.9752,2.9812,2.9843,2.9903,2.9925,2.9971,2.9951,2.9973,2.9979,2.9984,2.999,2.9839,2.998,2.998,2.9979,2.9979,2.9979,0,2.9562,2.9581,2.9626,2.9673,2.9713,2.9694,2.973,2.9764,2.9817,2.9848,2.9888,2.995,3.0,3.0019,3.0068,3.0102,3.0095,3.0114,3.0112,3.0116,3.0005,2.9987,3.0119,3.0119,3.0119,3.0118,3.0118,3.0118,2.9637,2.9709,2.9713,2.9797,2.9816,2.9874,2.9896,2.9926,2.995,3.002,3.0061,3.0074,3.01,3.015,3.0195,3.02,3.0218,3.0241,3.0242,3.0138,3.0124,3.011,3.0093,3.0245,3.0245,3.0349,3.035,3.035]},{"header":{"parameterUnit":"m.s-1","parameterCategory":1,"la1":30.2991,"la2":30.254,"lo1":-89.0895,"lo2":-89.0444,"dy":0.0017,"dx":0.0017,"nx":28,"ny":28,"refTime":"2024-04-12T03:00:00:Z","depth":0,"parameterNumber":3,"parameterNumberName":"V-component_of_WINDS"},"data":[0,0,0,0,0,0,0,0,0,0,0,0,0,0,0,0,0,0,0,0,0,0,0,0,0,0,0,0,0,0,0,0,0,0,0,0,0,0,0,0,0,0,0,0,0,0,0,0,0,0,0,0,0,0,0,0,0,0,-3.198,-3.1981,0,-3.2118,-3.212,-3.2121,-3.2091,-3.2088,-3.2086,-3.2083,-3.2228,-3.2234,-3.224,0,0,0,0,0,0,0,0,0,0,0,0,0,-3.1692,-3.1698,-3.1979,-3.1981,-3.1983,-3.2118,-3.212,-3.2122,-3.2091,-3.2088,-3.2085,-3.2082,-3.2226,-3.2233,-3.224,0,0,0,0,0,0,0,0,0,0,0,0,0,-3.1822,-3.1699,-3.1979,-3.1984,-3.1986,-3.2117,-3.212,-3.2122,-3.2092,-3.2088,-3.2084,-3.2081,-3.2223,-3.2232,-3.2241,-3.2377,0,0,-3.227,-3.2274,0,0,0,0,0,0,0,0,-3.1815,-3.1833,-3.1982,-3.1984,-3.1986,-3.2083,-3.2071,-3.2208,-3.2093,-3.2052,-3.2083,-3.2079,-3.2183,-3.2195,-3.223,-3.2384,-3.239,-3.2271,-3.2277,-3.2281,-3.2283,0,0,0,0,0,0,0,-3.1806,-3.1827,-3.2034,-3.1984,-3.1987,-3.198,-3.1995,-3.2097,-3.2138,-3.2055,-3.2053,-3.207,-3.2183,-3.2221,-3.2233,-3.2392,-3.2271,-3.2279,-3.2285,-3.2288,-3.2666,-3.267,0,0,0,0,0,0,-3.1795,-3.182,-3.203,-3.2038,-3.1889,-3.1989,-3.2005,-3.2056,-3.2136,-3.2145,-3.2073,-3.2068,-3.2207,-3.2222,-3.2238,-3.2403,-3.2281,-3.2289,-3.2295,-3.2662,-3.2667,-3.2672,0,0,0,0,0,0,-3.1789,-3.1814,-3.2024,-3.1929,-3.1955,-3.1998,-3.2056,-3.2061,-3.2098,-3.215,-3.2157,-3.2104,-3.2204,-3.2225,-3.2343,-3.2408,-3.2294,-3.2302,-3.2657,-3.2663,-3.267,-3.2734,0,0,0,0,0,0,-3.178,-3.1812,-3.1863,-3.193,-3.196,-3.2126,-3.206,-3.2066,-3.2114,-3.2109,-3.2181,-3.2189,-3.2203,-3.2329,-3.2352,-3.2419,-3.231,-3.2651,-3.266,-3.2667,-3.2726,-3.2742,-3.2755,0,0,0,0,0,-3.177,-3.1876,-3.1866,-3.1891,-3.2025,-3.213,-3.2148,-3.2161,-3.212,-3.2172,-3.2205,-3.2187,-3.2397,-3.2341,-3.2367,-3.2437,-3.2647,-3.2657,-3.2667,-3.272,-3.2739,-3.2755,0,0,0,0,0,0,-3.1816,-3.1885,-3.1874,-3.2005,-3.2062,-3.2125,-3.2191,-3.218,-3.2251,-3.2243,-3.2257,-3.2274,-3.2394,-3.2428,-3.2365,-3.2574,-3.2516,-3.2532,-3.2548,-3.2566,-3.258,-3.257,-3.2317,0,0,0,0,0,-3.1842,-3.192,-3.1976,-3.2086,-3.2115,-3.2148,-3.2195,-3.22,-3.226,-3.2284,-3.2326,-3.2386,-3.2465,-3.2517,-3.2593,-3.2731,-3.2747,-3.2792,-3.2806,-3.2818,-3.2832,-3.2908,-3.2929,-3.2704,-3.2704,-3.2704,0,0,-3.1895,-3.1942,-3.1991,-3.2096,-3.2141,-3.2223,-3.2169,-3.2258,-3.2319,-3.2298,-3.2412,-3.2445,-3.2513,-3.2641,-3.27,-3.2673,-3.2897,-3.2831,-3.284,-3.2847,-3.292,-3.2941,-3.296,-3.2711,-3.271,-3.2709,0,0,-3.2034,-3.2077,-3.2173,-3.2219,-3.2287,-3.2309,-3.2332,-3.2398,-3.2418,-3.2533,-3.2519,-3.2593,-3.2729,-3.2778,-3.2821,-3.2979,-3.2965,-3.3004,-3.308,-3.3154,-3.3172,-3.3187,-3.3245,-3.3265,-3.3017,-3.3017,-3.3017,0,-3.2091,-3.2214,-3.2224,-3.2315,-3.2362,-3.2346,-3.2444,-3.2489,-3.2579,-3.2613,-3.258,-3.2752,-3.2796,-3.2937,-3.2975,-3.301,-3.3038,-3.2996,-3.3168,-3.3184,-3.3199,-3.3254,-3.3275,-3.3021,-3.3021,-3.302,-3.302,0,-3.2282,-3.2367,-3.2437,-3.2523,-3.2578,-3.2673,-3.2699,-3.2754,-3.2754,-3.278,-3.2897,-3.295,-3.3037,-3.307,-3.3072,-3.3211,-3.3192,-3.3164,-3.3107,-3.3224,-3.3276,-3.3297,-3.3027,-3.3026,-3.3025,-3.3023,0,0,-3.2454,-3.2545,-3.2571,-3.261,-3.2685,-3.2751,-3.2845,-3.2929,-3.2976,-3.3039,-3.3119,-3.3235,-3.321,-3.3258,-3.3266,-3.3331,-3.3454,-3.3294,-3.3296,-3.3323,-3.3612,-3.3633,-3.3657,-3.3444,-3.3448,-3.3452,-3.3607,0,-3.26,-3.2764,-3.2777,-3.2926,-3.3005,-3.2991,-3.3073,-3.3128,-3.3155,-3.3227,-3.3256,-3.3338,-3.3298,-3.3327,-3.3391,-3.3425,-3.3512,-3.3414,-3.352,-3.3524,-3.3504,-3.3684,-3.3707,-3.3851,-3.3627,-3.363,-3.3633,0,-3.2792,-3.286,-3.3017,-3.3081,-3.3114,-3.3188,-3.3266,-3.3335,-3.3398,-3.3413,-3.3467,-3.3466,-3.3563,-3.3502,-3.3638,-3.3571,-3.3615,-3.3638,-3.3644,-3.3655,-3.3586,-3.3701,-3.3897,-3.3919,-3.3665,-3.3662,-3.366,0,-3.2903,-3.3034,-3.3144,-3.3179,-3.3256,-3.3308,-3.3342,-3.3401,-3.3451,-3.352,-3.3553,-3.3633,-3.3677,-3.3739,-3.376,-3.3713,-3.3895,-3.3835,-3.3911,-3.3911,-3.3951,-3.3948,-3.4157,-3.3978,-3.3978,-3.3977,-3.3977,0,-3.3065,-3.3162,-3.3195,-3.3264,-3.3372,-3.3386,-3.3493,-3.3525,-3.3577,-3.3652,-3.3645,-3.3716,-3.3738,-3.3813,-3.383,-3.3941,-3.396,-3.3976,-3.3979,-3.3977,-3.3975,-3.4007,-3.3998,-3.3983,-3.3982,-3.3981,-3.398,0,-3.3208,-3.3234,-3.3354,-3.3416,-3.3435,-3.3512,-3.3566,-3.3633,-3.3658,-3.3753,-3.3776,-3.3816,-3.3904,-3.393,-3.4037,-3.4048,-3.4178,-3.4172,-3.4156,-3.4157,-3.4232,-3.4225,-3.4469,-3.4502,-3.43,-3.4302,-3.4304,0,-3.331,-3.3384,-3.3455,-3.3504,-3.354,-3.362,-3.3671,-3.3688,-3.3742,-3.3819,-3.3877,-3.3963,-3.4034,-3.4175,-3.4215,-3.4296,-3.4293,-3.4373,-3.4305,-3.4301,-3.4295,-3.4291,-3.4299,-3.4386,-3.4388,-3.4389,-3.4391,0,-3.3489,-3.3498,-3.3571,-3.365,-3.371,-3.3773,-3.3833,-3.3874,-3.39,-3.3961,-3.4051,-3.4105,-3.4213,-3.43,-3.4383,-3.442,-3.4411,-3.4412,-3.4434,-3.4433,-3.4421,-3.4429,-3.4192,-3.4406,-3.4405,-3.4404,-3.4403,-3.4402,-3.3615,-3.368,-3.374,-3.3822,-3.3869,-3.3926,-3.3992,-3.4025,-3.4099,-3.4188,-3.4194,-3.4292,-3.4354,-3.4464,-3.4505,-3.4582,-3.4559,-3.4591,-3.4599,-3.4607,-3.4613,-3.4408,-3.4597,-3.4597,-3.4596,-3.4596,-3.4596,0,-3.3794,-3.3832,-3.3908,-3.3992,-3.4057,-3.4041,-3.4107,-3.4163,-3.4248,-3.4306,-3.4376,-3.4479,-3.4564,-3.4609,-3.4694,-3.4747,-3.4745,-3.4769,-3.4765,-3.4774,-3.4629,-3.4602,-3.4769,-3.4769,-3.4769,-3.4769,-3.4769,-3.4769,-3.3895,-3.4005,-3.4022,-3.4156,-3.4193,-3.4288,-3.4327,-3.438,-3.4426,-3.4542,-3.4612,-3.464,-3.4694,-3.4783,-3.486,-3.4871,-3.4903,-3.493,-3.4939,-3.4802,-3.4784,-3.4767,-3.4742,-3.4936,-3.4936,-3.5078,-3.5079,-3.508]}]]